Search for airport 
image banner adimage banner adimage banner ad
image banner ad

EKVG - Vagar

Located in All Faeroe Islands, Faroe Islands

ICAO - EKVG, IATA - FAE

Data provided by Airmate  

General information

Coordinates: N62°3'49" W7°16'38"
Elevation is 280 feet MSL.
Magnetic variation is -6.8° East
View others Airports in (unassigned)

Operational data

Special qualification required
Current time UTC:
Current local time:
Weather
METAR: EKVG 180820Z AUTO 17008KT 9999 FEW051/// BKN120/// 10/09 Q1009
TAF: TAF EKVG 180522Z 1806/1815 23006KT 9999 BKN028 BECMG 1809/1811 15010KT
View NOTAMs / SUP AIP / TFR affecting this airport [VIEW]
Communications frequencies: [VIEW]

Runways:

RWY identifierQFULength (ft)Width (ft)SurfaceLDA (ft)
12118°590298ASPH5902
30298°590298ASPH5902

Airport contact information

Address: All Faeroe Islands Faroe Islands

Satellite view of EKVG